This demonstration page uses our WeatherBlox Daily Observations layout. Learn more.

Left ArrowRight Arrow

38.20091, -84.87328

Hourly Observations for August 21, 2022

Temp ( °F °C ) Dew Point ( °F °C ) Humidity (%) Winds ( mph kmh ) Pressure ( in mb ) Visibility ( mi km ) Precip ( " mm )
12:22 am 00:22 Mostly Cloudy 74 23.3 71 21.7 91 91 SSE 6 9 30.01 1016 10 16 0.00 0.00
12:53 am 00:53 Cloudy 74 23.3 71 21.7 91 91 Calm 30.01 1016 10 16 0.00 0.00
1:53 am 01:53 Mostly Cloudy 74 23.3 71 21.7 91 91 SSW 3 6 29.99 1016 10 16 0.00 0.00
2:04 am 02:04 Partly Cloudy 73 22.8 70 21.1 90 90 Calm 29.99 1016 10 16 0.00 0.00
2:43 am 02:43 Mostly Cloudy 73 22.8 70 21.1 90 90 S 6 9 29.98 1015 10 16 0.00 0.00
2:53 am 02:53 Mostly Cloudy 73 22.8 71 21.7 94 94 S 7 11 29.98 1015 10 16 0.00 0.00
3:40 am 03:40 Mostly Cloudy 73 22.8 70 21.1 90 90 SSW 8 13 29.97 1015 10 16 0.00 0.00
3:53 am 03:53 Mostly Cloudy 72 22.2 70 21.1 93 93 SSW 6 9 29.98 1015 10 16 0.00 0.00
4:00 am 04:00 Mostly Cloudy 72 22.2 70 21.1 93 93 SSW 7 11 29.98 1015 10 16 0.00 0.00
4:27 am 04:27 Partly Cloudy 71 21.7 69 20.6 93 93 SW 7 11 29.98 1015 10 16 0.00 0.00
4:49 am 04:49 Mostly Cloudy 72 22 70 21 94 94 SSW 6 9 29.97 1015 10 16 0.00 0.00
4:53 am 04:53 Partly Cloudy 71 21.7 69 20.6 93 93 SSW 6 9 29.96 1015 10 16 0.00 0.00
5:53 am 05:53 Mostly Cloudy 70 21.1 68 20 93 93 SSE 3 6 29.96 1014 8 13 0.00 0.00
6:53 am 06:53 Cloudy 71 21.7 69 20.6 93 93 SSW 7 11 29.98 1015 10 16 0.00 0.00
7:07 am 07:07 Cloudy 71 21.7 69 20.6 93 93 SSW 5 7 29.99 1015 9 14 0.00 0.00
7:53 am 07:53 Cloudy 71 21.7 70 21.1 96 96 SSW 3 6 30.00 1016 9 14 0.00 0.00
8:06 am 08:06 Cloudy 72 22.2 70 21.1 93 93 SSW 5 7 30.00 1016 9 14 0.00 0.00
8:36 am 08:36 Cloudy 73 22.8 71 21.7 94 94 S 6 9 29.98 1015 10 16 0.00 0.00
8:53 am 08:53 Cloudy 73 22.8 70 21.1 90 90 SSW 7 11 29.99 1016 10 16 0.00 0.00
9:53 am 09:53 Cloudy 74 23.3 70 21.1 87 87 S 10 17 29.99 1016 10 16 0.00 0.00
10:02 am 10:02 Cloudy 74 23.3 70 21.1 87 87 SSW 8 13 29.99 1016 10 16 0.00 0.00
10:53 am 10:53 Cloudy 78 25.6 71 21.7 79 79 S 13 20 30.00 1016 10 16 0.00 0.00
11:53 am 11:53 Mostly Cloudy 80 26.7 71 21.7 74 74 SSW 9 15 29.99 1016 10 16 0.00 0.00
12:53 pm 12:53 Mostly Cloudy 78 25.6 72 22.2 82 82 SW 12 19 29.98 1015 10 16 0.01 0.13
1:01 pm 13:01 Cloudy with Heavy Rain 76 24.4 71 21.7 85 85 SW 12 19 29.98 1015 3 4 0.06 1.52
1:04 pm 13:04 Cloudy with Heavy Rain 75 23.9 71 21.7 88 88 SW 8 13 29.98 1015 1 2 0.13 3.30
1:06 pm 13:06 Cloudy with Nearby Thunderstorms 74 23.3 71 21.7 91 91 WSW 7 11 29.98 1015 1 2 0.15 3.81
1:19 pm 13:19 Cloudy with Strong Thunderstorms 73 22.8 71 21.7 94 94 WSW 10 17 29.99 1016 1 1 0.47 11.94
1:29 pm 13:29 Cloudy with Strong Thunderstorms 70 21.1 67 19.4 90 90 NNE 5 7 29.99 1015 1 1 0.66 16.76
1:33 pm 13:33 Cloudy with Thunderstorms 70 21.1 66 18.9 87 87 ENE 3 6 30.00 1016 1 2 0.66 16.76
1:38 pm 13:38 Cloudy with Thunderstorms 72 22.2 68 20 87 87 Calm 29.98 1015 3 5 0.67 17.02
1:50 pm 13:50 Cloudy with Nearby Thunderstorms 75 24 70 21 83 83 Calm 29.97 1015 10 16 0.67 17.02
1:53 pm 13:53 Cloudy with Nearby Thunderstorms 75 23.9 70 21.1 84 84 Calm 29.98 1015 10 16 0.67 17.02
2:03 pm 14:03 Mostly Cloudy 77 25 71 21.7 82 82 Calm 29.97 1015 10 16 0.00 0.00
2:09 pm 14:09 Mostly Cloudy 77 25 72 22.2 84 84 undefined N/A 29.96 1015 10 16 0.00 0.00
2:53 pm 14:53 Sunny 79 26.1 69 20.6 72 72 S 14 22 29.94 1014 10 16 0.00 0.00
3:53 pm 15:53 Mostly Cloudy 80 26.7 67 19.4 64 64 SSW 12 19 29.93 1014 10 16 0.00 0.00
4:53 pm 16:53 Sunny 79 26.1 68 20 69 69 SW 15 24 29.91 1013 10 16 0.00 0.00
5:53 pm 17:53 Sunny 77 25 69 20.6 77 77 SW 8 13 29.92 1013 10 16 0.00 0.00
6:53 pm 18:53 Mostly Sunny 78 25.6 69 20.6 74 74 SW 9 15 29.91 1013 10 16 0.00 0.00
7:53 pm 19:53 Mostly Sunny 76 24.4 69 20.6 79 79 SW 7 11 29.91 1013 10 16 0.00 0.00
8:53 pm 20:53 Mostly Clear 73 22.8 69 20.6 87 87 SW 3 6 29.93 1014 10 16 0.00 0.00
9:53 pm 21:53 Mostly Cloudy 73 22.8 70 21.1 90 90 Calm 29.95 1014 10 16 0.00 0.00
10:53 pm 22:53 Clear 71 21.7 69 20.6 93 93 SW 3 6 29.95 1014 10 16 0.00 0.00
11:53 pm 23:53 Clear 70 21.1 68 20 93 93 WSW 3 6 29.94 1014 10 16 0.00 0.00

Powered by AerisWeather